This is the latest recevied weather packets stored in our database for station/object W0VI. If no packets are shown the sender has not sent any weather packets the latest 10 day(s).
| Time | Temp. | Humidity | Pressure | Rain* | Wind** | Luminosity | Snow |
|---|---|---|---|---|---|---|---|
| 1778010140 | 8.89° C | 41% | 1011 hPa | 0 mm | - | 377 W/m² | - |
| 1778009836 | 8.89° C | 42% | 1010.9 hPa | 0 mm | - | 281 W/m² | - |
| 1778009534 | 8.89° C | 41% | 1011.3 hPa | 0 mm | - | 326 W/m² | - |
| 1778009233 | 8.89° C | 41% | 1011.1 hPa | 0 mm | - | 325 W/m² | - |
| 1778008929 | 8.89° C | 42% | 1011.1 hPa | 0 mm | - | 368 W/m² | - |
| 1778008628 | 8.89° C | 42% | 1010.9 hPa | 0 mm | - | 327 W/m² | - |
| 1778008326 | 8.89° C | 42% | 1011.1 hPa | 0 mm | - | 311 W/m² | - |
| 1778008022 | 8.89° C | 41% | 1011 hPa | 0 mm | - | 289 W/m² | - |
| 1778007721 | 8.89° C | 41% | 1010.9 hPa | 0 mm | - | 304 W/m² | - |
| 1778007418 | 8.89° C | 42% | 1010.9 hPa | 0 mm | - | 289 W/m² | - |
| 1778007115 | 8.89° C | 42% | 1011.1 hPa | 0 mm | - | 291 W/m² | - |
| 1778006811 | 8.89° C | 42% | 1011 hPa | 0 mm | - | 249 W/m² | - |
| 1778006508 | 8.89° C | 41% | 1011 hPa | 0 mm | - | 367 W/m² | - |
| 1778006205 | 8.33° C | 41% | 1011.2 hPa | 0 mm | - | 366 W/m² | - |
| 1778005903 | 8.89° C | 41% | 1010.9 hPa | 0 mm | - | 290 W/m² | - |
| 1778005599 | 8.33° C | 41% | 1011 hPa | 0 mm | - | 494 W/m² | - |
| 1778005296 | 8.89° C | 41% | 1010.9 hPa | 0 mm | - | 338 W/m² | - |
| 1778004992 | 9.44° C | 42% | 1011.1 hPa | 0 mm | - | 367 W/m² | - |
| 1778004690 | 8.33° C | 41% | 1011.1 hPa | 0 mm | - | 345 W/m² | - |
| 1778004386 | 8.33° C | 43% | 1011 hPa | 0 mm | - | 306 W/m² | - |
| 1778004083 | 9.44° C | 41% | 1010.9 hPa | 0 mm | - | 375 W/m² | - |
| 1778003779 | 9.44° C | 41% | 1010.9 hPa | 0 mm | - | 403 W/m² | - |
| 1778003476 | 8.33° C | 42% | 1011 hPa | 0 mm | - | 374 W/m² | - |
| 1778003172 | 8.89° C | 41% | 1011.1 hPa | 0 mm | - | 304 W/m² | - |
| 1778002868 | 8.89° C | 41% | 1010.8 hPa | 0 mm | - | 351 W/m² | - |
* Rain latest hour (hover to see other rain measurements)
** Current wind speed in m/s (hover to see current wind gust speed)